PROXIMA II (43696 NORAD) Tracking and Keplerian Element Data

This shows tracking and keplerian element data for the satellite.

Feedback or suggestion? Click here.




ElementValue
Catalog43696
NamePROXIMA II
Epoch Orbit1074
Epoch Day20.84472319
Epoch Year2019
RAAN56.2903
Inclination85.0307
Eccentricity0.0020221
Argument of Perigee18.0731
Mean Anonmoly342.1225
Mean Motion15.21109889
Decay Rate6.91E-06
L11 43696U 18088G 19020.84472319 .00000691 00000-0 29099-4 0 9992
L22 43696 85.0307 56.2903 0020221 18.0731 342.1225 15.21109889 10740

Live tracking and technical data element details for PROXIMA II (NORAD 43696). PROXIMA II can be tracked NOW for your location showing map with azimuth and elevation plus other details from your city location.

Track the satellite on the map from your city or location and see movement details for azimuth, elevation, latitude, longitude, range, height, and movement on the map or in text.







IsCatalogInMostPopularTable: catalog: 43696, numindb: 44
Update: records affected: 1



GetName: 43696 PROXIMA II

Hit Count: updated at: Wed, 23 Jan 2019 03:31:21 GMT